GW2818 Weather Reports


Display with metric or nautical units.
time (UTC)temp
F
wind
direction
speed
MPH
gust
MPH
rain 1hr
in
rain 24hr
in
rain mn
in
humidity
%
barometer
mb
20260831221558 79 0 0.0 0.0 0.00 0.00 0.00 84 1018.9
20260831220053 79 0 0.0 0.0 0.00 0.00 0.00 84 1019.0
20260831214548 79 0 0.0 0.0 0.00 0.00 0.00 84 1019.1
20260831213050 80 0 0.0 0.0 0.00 0.00 0.00 83 1019.0
20260831211605 81 0 0.0 1.0 0.00 0.00 0.00 82 1019.1
20260831210054 81 0 0.0 0.0 0.00 0.00 0.00 83 1019.1
20260831204543 81 0 0.0 1.0 0.00 0.00 0.00 82 1019.1
20260831203051 81 0 0.0 0.0 0.00 0.00 0.00 82 1019.4
20260831201553 81 0 0.0 2.0 0.00 0.00 0.00 80 1019.5
20260831200043 79 158 0.0 0.0 0.00 0.00 0.00 83 1019.8
20260831194559 79 0 0.0 0.0 0.00 0.00 0.00 85 1019.7
20260831193053 79 0 0.0 0.0 0.00 0.00 0.00 84 1019.9
20260831191549 79 0 0.0 1.0 0.00 0.00 0.00 82 1020.0
20260831190047 80 0 0.0 0.0 0.00 0.00 0.00 82 1020.0
20260831184550 79 0 0.0 0.0 0.00 0.00 0.00 82 1020.0
20260831183047 79 0 0.0 0.0 0.00 0.00 0.00 82 1020.2
20260831181544 79 0 0.0 0.0 0.00 0.00 0.00 83 1020.3
20260831180051 79 158 0.0 1.0 0.00 0.00 0.00 81 1020.3
20260831174550 80 0 0.0 2.0 0.00 0.00 0.00 80 1020.2
20260831173047 82 0 0.0 2.0 0.00 0.00 0.00 77 1020.3
20260831171541 82 0 0.0 2.0 0.00 0.00 0.00 80 1020.4
20260831170055 81 0 0.0 4.0 0.00 0.00 0.00 81 1020.3
20260831164549 80 0 0.0 2.0 0.00 0.00 0.00 84 1020.3
20260831163051 79 0 0.0 2.0 0.00 0.00 0.00 85 1020.5
20260831161550 79 0 0.0 0.0 0.00 0.00 0.00 86 1020.8
20260831160046 78 167 0.0 2.0 0.00 0.00 0.00 87 1020.9
20260831154622 76 0 0.0 3.0 0.00 0.00 0.00 88 1020.9
20260831153049 75 0 0.0 0.0 0.00 0.00 0.00 88 1020.9
20260831151607 75 0 0.0 2.0 0.00 0.00 0.00 89 1020.9
20260831150043 74 0 0.0 2.0 0.00 0.00 0.00 89 1020.8
20260831144543 73 0 0.0 1.0 0.00 0.00 0.00 90 1020.8
20260831143051 72 0 0.0 1.0 0.00 0.00 0.00 90 1020.8
20260831141548 71 0 0.0 0.0 0.00 0.00 0.00 91 1020.8
20260831140042 71 0 0.0 0.0 0.00 0.00 0.00 91 1021.0
20260831134549 70 0 0.0 0.0 0.00 0.00 0.00 91 1020.9
20260831133052 70 0 0.0 0.0 0.00 0.00 0.00 91 1020.9
20260831131552 69 0 0.0 0.0 0.00 0.00 0.00 92 1020.9
20260831130057 68 0 0.0 0.0 0.00 0.00 0.00 92 1021.0
20260831124558 68 0 0.0 0.0 0.00 0.00 0.00 93 1021.1
20260831123056 68 0 0.0 0.0 0.00 0.00 0.00 93 1021.0
20260831121551 67 0 0.0 0.0 0.00 0.00 0.00 93 1020.9
20260831120044 67 0 0.0 0.0 0.00 0.00 0.00 93 1020.9
20260831114552 67 0 0.0 0.0 0.00 0.00 0.00 93 1020.9
20260831113049 67 0 0.0 0.0 0.00 0.00 0.00 93 1020.9
20260831111544 67 0 0.0 0.0 0.00 0.00 0.00 93 1020.7
20260831110051 67 0 0.0 0.0 0.00 0.00 0.00 93 1020.6
20260831104547 67 0 0.0 0.0 0.00 0.00 0.00 93 1020.5
20260831103046 67 0 0.0 0.0 0.00 0.00 0.00 93 1020.4
20260831101548 67 0 0.0 0.0 0.00 0.00 0.00 93 1020.2
20260831094541 67 0 0.0 0.0 0.00 0.00 0.00 93 1020.0
20260831093052 67 0 0.0 0.0 0.00 0.00 0.00 92 1019.9
20260831091542 67 0 0.0 0.0 0.00 0.00 0.00 93 1020.0
20260831090051 67 0 0.0 0.0 0.00 0.00 0.00 93 1020.1
20260831084547 66 0 0.0 0.0 0.00 0.00 0.00 92 1020.0
20260831083046 66 0 0.0 0.0 0.00 0.00 0.00 92 1020.0
20260831081555 67 0 0.0 0.0 0.00 0.00 0.00 92 1020.1
20260831080048 67 0 0.0 0.0 0.00 0.00 0.00 91 1020.2
20260831074545 67 0 0.0 0.0 0.00 0.00 0.00 91 1020.2
20260831073048 68 0 0.0 0.0 0.00 0.00 0.00 90 1020.3
20260831071607 68 0 0.0 0.0 0.00 0.00 0.00 90 1020.3
20260831070048 68 0 0.0 0.0 0.00 0.00 0.00 89 1020.4
20260831064543 68 0 0.0 0.0 0.00 0.00 0.00 89 1020.5
20260831063043 69 0 0.0 0.0 0.00 0.00 0.00 89 1020.6
20260831061543 69 0 0.0 1.0 0.00 0.00 0.00 89 1020.6
20260831060100 69 0 0.0 1.0 0.00 0.00 0.00 90 1020.7
20260831054544 69 0 0.0 0.0 0.00 0.00 0.00 89 1021.0
20260831053052 69 0 0.0 0.0 0.00 0.00 0.00 88 1021.1
20260831051544 69 0 0.0 0.0 0.00 0.00 0.00 88 1021.1
20260831050045 69 0 0.0 0.0 0.00 0.00 0.00 88 1021.0
20260831044551 70 0 0.0 0.0 0.00 0.00 0.00 87 1021.0
20260831043047 70 0 0.0 0.0 0.00 0.00 0.00 87 1021.0
20260831041550 70 0 0.0 2.0 0.00 0.00 0.00 87 1021.0
20260831040042 70 261 0.0 1.0 0.00 0.00 0.00 86 1021.1
20260831034544 70 0 0.0 0.0 0.00 0.00 0.00 86 1021.3
20260831033050 70 0 0.0 0.0 0.00 0.00 0.00 87 1021.6
20260831031543 71 0 0.0 0.0 0.00 0.00 0.00 87 1021.7
20260831030044 71 0 0.0 1.0 0.00 0.00 0.00 87 1022.2
20260831024551 71 256 0.0 3.0 0.00 0.00 0.00 87 1022.3
20260831023044 71 0 0.0 1.0 0.00 0.00 0.00 87 1022.5
20260831021542 72 0 0.0 0.0 0.00 0.00 0.00 86 1022.4
20260831020104 72 0 0.0 0.0 0.00 0.00 0.00 85 1022.0
20260831014549 72 0 0.0 0.0 0.00 0.00 0.00 85 1021.8
20260831013045 72 0 0.0 0.0 0.00 0.00 0.00 84 1021.4
20260831011546 72 0 0.0 0.0 0.00 0.00 0.00 83 1021.0
20260831010046 73 0 0.0 0.0 0.00 0.00 0.00 83 1020.6
20260831004548 73 0 0.0 0.0 0.00 0.00 0.00 82 1020.6
20260831003051 73 0 0.0 1.0 0.00 0.00 0.00 81 1020.2
20260831001550 73 0 0.0 0.0 0.00 0.00 0.00 81 1020.2
20260831000045 74 0 0.0 0.0 0.00 0.00 0.00 80 1020.3
20260830234548 74 0 0.0 0.0 0.00 0.00 0.00 79 1020.0
20260830233052 74 0 0.0 0.0 0.00 0.00 0.00 79 1020.2
20260830231549 75 0 0.0 1.0 0.00 0.00 0.00 78 1020.1
20260830230045 75 0 0.0 0.0 0.00 0.00 0.00 77 1020.1
20260830224556 75 0 0.0 0.0 0.00 0.00 0.00 76 1020.1
20260830223053 76 0 0.0 0.0 0.00 0.00 0.00 76 1020.0